Regional Weather Roundup
Issued by NWS Nashville, TN

Home | Current Version | Previous Version | Text Only | Print | Product List | Glossary On
Versions: 1 2 3 4 5 6 7 8 9 10 11 12 13 14 15 16 17 18 19 20 21 22 23 24 25 26 27 28 29 30 31 32 33 34 35 36 37 38 39 40 41 42 43 44 45 46 47 48 49 50
000
ASUS44 KOHX 121110
RWROHX
MIDDLE TENNESSEE HOURLY WEATHER ROUNDUP
NATIONAL WEATHER SERVICE NASHVILLE TN
500 AM CST TUE DEC 12 2017

NOTE: "FAIR" INDICATES FEW OR NO CLOUDS BELOW 12,000 FEET WITH
NO SIGNIFICANT WEATHER AND/OR OBSTRUCTIONS TO VISIBILITY.

* THESE REPORTS ARE NOT UNDER NWS QUALITY CONTROL AND MAY NOT
  REPORT WEATHER SUCH AS PRECIPITATION AND FOG.


TNZ005>011-023>034-057-059-062>066-078-080-121200
...NORTHERN MIDDLE TENNESSEE...

CITY           SKY/WX    TMP DP  RH WIND       PRES   REMARKS
CLARKSVILLE    CLOUDY    42  32  67 N16       30.00R
CROSSVILLE     MOCLDY    38  28  67 NW8       29.86R WCI  32
GALLATIN       CLOUDY    43  34  70 NW13G28   29.97R
DICKSON          N/A     43  32  65 NW9       29.96R
NASHVILLE      CLOUDY    45  33  63 NW18G28   29.96R
PORTLAND       CLOUDY    41  34  75 NW12G18   29.95R
SMYRNA         CLOUDY    44  33  65 NW23G30   29.96R
SPARTA         CLOUDY    43  32  65 NW7       29.88S
WEST NASHVILLE CLOUDY    43  34  70 NW9G16    29.96R
$$
TNZ056-058-060-061-075>077-079-093>097-121200
...SOUTHERN MIDDLE TENNESSEE...

CITY           SKY/WX    TMP DP  RH WIND       PRES   REMARKS
COLUMBIA       CLOUDY    46  30  53 NW3G12    29.94R
FAYETTEVILLE   CLOUDY    45  28  53 NW8       29.91S
MCMINNVILLE    MOCLDY    43  30  61 NW13G18   29.91R
MURFREESBORO   CLOUDY    45  32  60 N12       29.94R
PULASKI        CLOUDY    46  32  57 NW7G13    29.94S
SHELBYVILLE    CLOUDY    45  32  61 N9        29.93S
TULLAHOMA      CLOUDY    43  30  61 N9        29.91S
WINCHESTER     MOCLDY    43  28  56 NW6       29.91S
$$


...KEY TO REMARKS...
VSB - VISIBILITY IN MILES
WCI - WIND CHILL INDEX
HX  - HEAT INDEX




USA.gov is the U.S. government's official web portal to all federal, state and local government web resources and services.